This is the latest recevied weather packets stored in our database for station/object K4AVM-13. If no packets are shown the sender has not sent any weather packets the latest 10 day(s).
| Time | Temp. | Humidity | Pressure | Rain* | Wind** | Luminosity | Snow |
|---|---|---|---|---|---|---|---|
| 1778110513 | 21.67° C | 79% | 1010.9 hPa | 0 mm | - | 20 W/m² | - |
| 1778110210 | 21.67° C | 79% | 1010.9 hPa | 0 mm | - | 20 W/m² | - |
| 1778109906 | 21.67° C | 79% | 1011 hPa | 0 mm | - | 19 W/m² | - |
| 1778109601 | 21.67° C | 79% | 1011 hPa | 0 mm | - | 24 W/m² | - |
| 1778109299 | 21.67° C | 78% | 1011.1 hPa | 0 mm | - | 35 W/m² | - |
| 1778108997 | 22.22° C | 77% | 1010.6 hPa | 0 mm | - | 46 W/m² | - |
| 1778108692 | 22.22° C | 77% | 1011.2 hPa | 0 mm | - | 62 W/m² | - |
| 1778108389 | 22.22° C | 77% | 1011.2 hPa | 0 mm | - | 70 W/m² | - |
| 1778108087 | 21.67° C | 78% | 1011 hPa | 0 mm | - | 69 W/m² | - |
| 1778107783 | 21.67° C | 78% | 1011.1 hPa | 0 mm | - | 61 W/m² | - |
| 1778107481 | 21.67° C | 77% | 1011.1 hPa | 0 mm | - | 59 W/m² | - |
| 1778107177 | 21.67° C | 77% | 1011 hPa | 0 mm | - | 66 W/m² | - |
| 1778106873 | 21.67° C | 77% | 1011.1 hPa | 0 mm | - | 75 W/m² | - |
| 1778106570 | 21.67° C | 77% | 1011 hPa | 0 mm | - | 75 W/m² | - |
| 1778106267 | 21.67° C | 76% | 1011.1 hPa | 0 mm | - | 86 W/m² | - |
| 1778105964 | 21.67° C | 76% | 1011.1 hPa | 0 mm | - | 81 W/m² | - |
| 1778105661 | 21.67° C | 76% | 1011 hPa | 0 mm | - | 84 W/m² | - |
| 1778105359 | 22.22° C | 77% | 1010.8 hPa | 0 mm | - | 90 W/m² | - |
| 1778105054 | 22.22° C | 76% | 1010.9 hPa | 0 mm | - | 96 W/m² | - |
| 1778104750 | 22.22° C | 76% | 1011.1 hPa | 0 mm | - | 103 W/m² | - |
| 1778104447 | 22.22° C | 75% | 1011 hPa | 0 mm | - | 113 W/m² | - |
| 1778104143 | 22.22° C | 75% | 1011 hPa | 0 mm | - | 122 W/m² | - |
| 1778103840 | 22.22° C | 76% | 1011.1 hPa | 0 mm | - | 139 W/m² | - |
| 1778103537 | 22.78° C | 76% | 1011.1 hPa | 0 mm | - | 149 W/m² | - |
| 1778103235 | 22.22° C | 76% | 1011.2 hPa | 0 mm | - | 156 W/m² | - |
* Rain latest hour (hover to see other rain measurements)
** Current wind speed in m/s (hover to see current wind gust speed)